| time (UTC) | temp F | wind direction | speed knots | gust knots | rain 1hr in | rain 24hr in | rain mn in | humidity % | barometer mb |
| 20260506163505 | 58 | 192 | 6.1 | 14.8 | 0.01 | 0.01 | 0.00 | 93 | 1015.6 |
| 20260506163006 | 58 | 193 | 3.5 | 14.8 | 0.01 | 0.01 | 0.00 | 94 | 1015.6 |
| 20260506162505 | 57 | 202 | 7.8 | 13.9 | 0.01 | 0.01 | 0.00 | 94 | 1015.6 |
| 20260506162005 | 57 | 197 | 7.0 | 13.0 | 0.01 | 0.01 | 0.00 | 94 | 1015.5 |
| 20260506161505 | 57 | 196 | 5.2 | 13.9 | 0.01 | 0.01 | 0.00 | 94 | 1015.4 |
| 20260506161005 | 57 | 196 | 7.0 | 15.6 | 0.01 | 0.01 | 0.00 | 94 | 1015.6 |
| 20260506160505 | 57 | 199 | 8.7 | 15.6 | 0.01 | 0.01 | 0.00 | 95 | 1015.4 |
| 20260506160005 | 57 | 197 | 5.2 | 11.3 | 0.01 | 0.01 | 0.01 | 94 | 1015.4 |
| 20260506155505 | 57 | 197 | 6.1 | 11.3 | 0.01 | 0.01 | 0.01 | 94 | 1015.4 |
| 20260506155005 | 57 | 199 | 6.1 | 13.0 | 0.01 | 0.01 | 0.01 | 94 | 1015.2 |
| 20260506154505 | 57 | 198 | 2.6 | 13.0 | 0.00 | 0.00 | 0.00 | 94 | 1015.1 |
| 20260506153448 | 57 | 195 | 4.3 | 9.6 | 0.00 | 0.00 | 0.00 | 94 | 1014.7 |
| 20260506152154 | 57 | 195 | 2.6 | 11.3 | 0.00 | 0.00 | 0.00 | 93 | 1014.8 |
| 20260506151654 | 57 | 194 | 1.7 | 11.3 | 0.00 | 0.00 | 0.00 | 93 | 1014.9 |
| 20260506151154 | 57 | 201 | 2.6 | 8.7 | 0.00 | 0.00 | 0.00 | 93 | 1014.9 |
| 20260506150654 | 57 | 200 | 1.7 | 7.0 | 0.00 | 0.00 | 0.00 | 93 | 1015.1 |
| 20260506150154 | 57 | 193 | 3.5 | 9.6 | 0.00 | 0.00 | 0.00 | 92 | 1014.9 |
| 20260506145654 | 58 | 189 | 1.7 | 13.9 | 0.00 | 0.00 | 0.00 | 91 | 1015.0 |
| 20260506145155 | 58 | 195 | 3.5 | 13.9 | 0.00 | 0.00 | 0.00 | 90 | 1015.0 |
| 20260506144726 | 58 | 193 | 3.5 | 13.0 | 0.00 | 0.00 | 0.00 | 89 | 1014.9 |
| 20260506144654 | 58 | 193 | 3.5 | 13.0 | 0.00 | 0.00 | 0.00 | 89 | 1014.9 |
| 20260506144155 | 58 | 201 | 7.8 | 12.2 | 0.00 | 0.00 | 0.00 | 89 | 1014.7 |
| 20260506143654 | 58 | 198 | 3.5 | 9.6 | 0.00 | 0.00 | 0.00 | 90 | 1014.7 |
| 20260506143155 | 58 | 195 | 6.1 | 9.6 | 0.00 | 0.00 | 0.00 | 90 | 1014.6 |
| 20260506142654 | 58 | 193 | 2.6 | 7.0 | 0.00 | 0.00 | 0.00 | 89 | 1014.6 |
| 20260506142155 | 58 | 192 | 1.7 | 6.1 | 0.00 | 0.00 | 0.00 | 88 | 1014.3 |
| 20260506141654 | 58 | 202 | 1.7 | 5.2 | 0.00 | 0.00 | 0.00 | 88 | 1014.7 |
| 20260506141155 | 58 | 0 | 0.0 | 7.0 | 0.00 | 0.00 | 0.00 | 88 | 1014.7 |
| 20260506140654 | 58 | 200 | 2.6 | 8.7 | 0.00 | 0.00 | 0.00 | 88 | 1014.9 |
| 20260506140155 | 58 | 199 | 1.7 | 8.7 | 0.00 | 0.00 | 0.00 | 89 | 1014.8 |
| 20260506135654 | 58 | 195 | 0.9 | 10.4 | 0.00 | 0.00 | 0.00 | 89 | 1014.7 |
| 20260506135155 | 58 | 193 | 4.3 | 10.4 | 0.00 | 0.00 | 0.00 | 89 | 1014.7 |
| 20260506134654 | 58 | 198 | 2.6 | 8.7 | 0.00 | 0.00 | 0.00 | 88 | 1014.8 |
| 20260506134021 | 58 | 195 | 3.5 | 9.6 | 0.00 | 0.00 | 0.00 | 88 | 1014.5 |
| 20260506133525 | 58 | 196 | 4.3 | 8.7 | 0.00 | 0.00 | 0.00 | 88 | 1014.4 |
| 20260506133021 | 58 | 183 | 2.6 | 11.3 | 0.00 | 0.00 | 0.00 | 88 | 1014.3 |
| 20260506132521 | 57 | 197 | 3.5 | 11.3 | 0.00 | 0.00 | 0.00 | 88 | 1014.4 |
| 20260506132021 | 57 | 203 | 6.1 | 17.4 | 0.00 | 0.00 | 0.00 | 89 | 1014.4 |
| 20260506131524 | 57 | 194 | 3.5 | 17.4 | 0.00 | 0.00 | 0.00 | 89 | 1014.5 |
| 20260506131025 | 57 | 190 | 6.1 | 17.4 | 0.00 | 0.00 | 0.00 | 89 | 1014.8 |
| 20260506130527 | 56 | 199 | 7.0 | 13.9 | 0.00 | 0.00 | 0.00 | 89 | 1014.7 |
| 20260506130021 | 56 | 195 | 1.7 | 10.4 | 0.00 | 0.00 | 0.00 | 89 | 1014.5 |
| 20260506125523 | 56 | 196 | 2.6 | 10.4 | 0.00 | 0.00 | 0.00 | 89 | 1014.7 |
| 20260506125021 | 56 | 191 | 2.6 | 7.8 | 0.00 | 0.00 | 0.00 | 90 | 1014.6 |
| 20260506124454 | 56 | 201 | 5.2 | 7.8 | 0.00 | 0.00 | 0.00 | 89 | 1014.6 |
| 20260506123955 | 56 | 198 | 1.7 | 8.7 | 0.00 | 0.00 | 0.00 | 90 | 1014.6 |
| 20260506123455 | 56 | 188 | 1.7 | 10.4 | 0.00 | 0.00 | 0.00 | 90 | 1014.4 |
| 20260506122955 | 56 | 191 | 0.9 | 13.0 | 0.00 | 0.00 | 0.00 | 90 | 1014.2 |
| 20260506122528 | 56 | 183 | 4.3 | 13.0 | 0.00 | 0.00 | 0.00 | 89 | 1014.0 |
| 20260506122454 | 56 | 183 | 4.3 | 13.0 | 0.00 | 0.00 | 0.00 | 89 | 1014.0 |
| 20260506121954 | 56 | 200 | 7.0 | 12.2 | 0.00 | 0.00 | 0.00 | 89 | 1014.3 |
| 20260506121454 | 56 | 197 | 6.1 | 11.3 | 0.00 | 0.00 | 0.00 | 89 | 1014.6 |
| 20260506120955 | 56 | 199 | 5.2 | 13.9 | 0.00 | 0.00 | 0.00 | 89 | 1015.0 |
| 20260506120454 | 56 | 199 | 6.1 | 14.8 | 0.00 | 0.00 | 0.00 | 89 | 1014.8 |
| 20260506115954 | 56 | 200 | 7.8 | 18.2 | 0.00 | 0.00 | 0.00 | 89 | 1014.8 |
| 20260506115454 | 56 | 198 | 9.6 | 18.2 | 0.00 | 0.00 | 0.00 | 89 | 1014.5 |
| 20260506114954 | 56 | 194 | 5.2 | 14.8 | 0.00 | 0.00 | 0.00 | 89 | 1014.5 |
| 20260506114455 | 56 | 196 | 7.8 | 16.5 | 0.00 | 0.00 | 0.00 | 89 | 1014.4 |
| 20260506113955 | 56 | 196 | 8.7 | 16.5 | 0.00 | 0.00 | 0.00 | 89 | 1014.3 |
| 20260506113454 | 56 | 201 | 9.6 | 16.5 | 0.00 | 0.00 | 0.00 | 89 | 1014.1 |
| 20260506112957 | 56 | 192 | 8.7 | 19.1 | 0.00 | 0.00 | 0.00 | 89 | 1013.9 |
| 20260506112455 | 56 | 196 | 9.6 | 21.7 | 0.00 | 0.00 | 0.00 | 89 | 1013.8 |
| 20260506111954 | 56 | 188 | 10.4 | 24.3 | 0.00 | 0.00 | 0.00 | 89 | 1014.0 |
| 20260506111535 | 56 | 194 | 12.2 | 24.3 | 0.00 | 0.00 | 0.00 | 89 | 1013.8 |
| 20260506111457 | 56 | 194 | 12.2 | 24.3 | 0.00 | 0.00 | 0.00 | 89 | 1013.8 |
| 20260506111036 | 56 | 186 | 12.2 | 19.1 | 0.00 | 0.00 | 0.00 | 89 | 1013.6 |
| 20260506110958 | 56 | 186 | 12.2 | 19.1 | 0.00 | 0.00 | 0.00 | 89 | 1013.6 |
| 20260506105649 | 56 | 198 | 7.8 | 19.1 | 0.00 | 0.00 | 0.00 | 88 | 1013.6 |
| 20260506105155 | 56 | 199 | 11.3 | 19.1 | 0.00 | 0.00 | 0.00 | 89 | 1013.8 |
| 20260506104650 | 56 | 200 | 9.6 | 18.2 | 0.00 | 0.00 | 0.00 | 88 | 1013.9 |
| 20260506104149 | 56 | 195 | 8.7 | 22.6 | 0.00 | 0.00 | 0.00 | 88 | 1013.8 |
| 20260506103649 | 56 | 198 | 11.3 | 22.6 | 0.00 | 0.00 | 0.00 | 88 | 1013.7 |
| 20260506103149 | 56 | 193 | 7.0 | 16.5 | 0.00 | 0.00 | 0.00 | 88 | 1013.9 |
| 20260506102649 | 56 | 201 | 7.8 | 16.5 | 0.00 | 0.00 | 0.00 | 88 | 1013.6 |
| 20260506102149 | 56 | 199 | 8.7 | 16.5 | 0.00 | 0.00 | 0.00 | 88 | 1013.4 |
| 20260506101649 | 56 | 196 | 9.6 | 16.5 | 0.00 | 0.00 | 0.00 | 88 | 1013.5 |
| 20260506101150 | 56 | 195 | 7.8 | 26.1 | 0.00 | 0.00 | 0.00 | 88 | 1013.5 |
| 20260506100649 | 56 | 194 | 9.6 | 26.1 | 0.00 | 0.00 | 0.00 | 88 | 1013.4 |
| 20260506100150 | 56 | 197 | 8.7 | 16.5 | 0.00 | 0.00 | 0.00 | 88 | 1013.6 |
| 20260506095649 | 56 | 199 | 8.7 | 18.2 | 0.00 | 0.00 | 0.00 | 88 | 1013.4 |
| 20260506095149 | 56 | 189 | 9.6 | 18.2 | 0.00 | 0.00 | 0.00 | 88 | 1013.5 |
| 20260506094649 | 57 | 198 | 10.4 | 18.2 | 0.00 | 0.00 | 0.00 | 88 | 1013.5 |
| 20260506094149 | 57 | 196 | 7.8 | 17.4 | 0.00 | 0.00 | 0.00 | 88 | 1013.6 |
| 20260506093649 | 57 | 191 | 7.0 | 17.4 | 0.00 | 0.00 | 0.00 | 87 | 1013.6 |
| 20260506093149 | 57 | 196 | 7.8 | 13.9 | 0.00 | 0.00 | 0.00 | 87 | 1013.5 |
| 20260506092649 | 57 | 197 | 7.8 | 13.9 | 0.00 | 0.00 | 0.00 | 87 | 1013.4 |
| 20260506092149 | 57 | 196 | 7.0 | 14.8 | 0.00 | 0.00 | 0.00 | 87 | 1013.6 |
| 20260506091649 | 57 | 198 | 7.8 | 14.8 | 0.00 | 0.00 | 0.00 | 87 | 1013.7 |
| 20260506091149 | 57 | 197 | 7.0 | 15.6 | 0.00 | 0.00 | 0.00 | 87 | 1013.6 |
| 20260506090650 | 57 | 196 | 7.0 | 15.6 | 0.00 | 0.00 | 0.00 | 87 | 1013.8 |
| 20260506090149 | 57 | 198 | 7.0 | 13.9 | 0.00 | 0.00 | 0.00 | 87 | 1013.7 |
| 20260506085649 | 57 | 200 | 7.8 | 13.0 | 0.00 | 0.00 | 0.00 | 86 | 1013.9 |
| 20260506084621 | 57 | 191 | 6.1 | 13.0 | 0.00 | 0.00 | 0.00 | 86 | 1013.9 |
| 20260506083838 | 57 | 192 | 6.1 | 13.9 | 0.00 | 0.00 | 0.00 | 86 | 1014.0 |
| 20260506083339 | 57 | 193 | 7.8 | 13.9 | 0.00 | 0.00 | 0.00 | 86 | 1013.8 |
| 20260506082838 | 57 | 194 | 7.0 | 13.0 | 0.00 | 0.00 | 0.00 | 85 | 1013.8 |
| 20260506082338 | 57 | 195 | 7.0 | 14.8 | 0.00 | 0.00 | 0.00 | 85 | 1014.0 |
| 20260506081839 | 57 | 185 | 7.0 | 14.8 | 0.00 | 0.00 | 0.00 | 85 | 1013.9 |
| 20260506081338 | 58 | 196 | 7.8 | 14.8 | 0.00 | 0.00 | 0.00 | 84 | 1013.9 |
| 20260506080839 | 58 | 186 | 7.8 | 15.6 | 0.00 | 0.00 | 0.00 | 84 | 1013.9 |
| 20260506080338 | 58 | 200 | 9.6 | 16.5 | 0.00 | 0.00 | 0.00 | 84 | 1013.9 |
| 20260506073338 | 58 | 187 | 7.0 | 15.6 | 0.00 | 0.00 | 0.00 | 83 | 1014.3 |
| 20260506072838 | 58 | 198 | 7.8 | 15.6 | 0.00 | 0.00 | 0.00 | 83 | 1014.3 |
| 20260506072338 | 58 | 194 | 7.8 | 15.6 | 0.00 | 0.00 | 0.00 | 82 | 1014.2 |
| 20260506071839 | 58 | 192 | 7.0 | 19.1 | 0.00 | 0.00 | 0.00 | 82 | 1014.1 |
| 20260506071339 | 58 | 198 | 8.7 | 26.1 | 0.00 | 0.00 | 0.00 | 82 | 1013.9 |
| 20260506070841 | 58 | 190 | 11.3 | 26.9 | 0.00 | 0.00 | 0.00 | 81 | 1014.0 |
| 20260506070338 | 58 | 197 | 8.7 | 26.9 | 0.00 | 0.00 | 0.00 | 81 | 1014.1 |
| 20260506062338 | 59 | 191 | 9.6 | 17.4 | 0.00 | 0.00 | 0.00 | 79 | 1014.6 |
| 20260506061838 | 59 | 190 | 8.7 | 20.0 | 0.00 | 0.00 | 0.00 | 79 | 1014.4 |
| 20260506061338 | 59 | 187 | 9.6 | 20.0 | 0.00 | 0.00 | 0.00 | 78 | 1014.5 |
| 20260506060838 | 59 | 194 | 9.6 | 18.2 | 0.00 | 0.00 | 0.00 | 78 | 1014.5 |
| 20260506060338 | 59 | 188 | 7.8 | 18.2 | 0.00 | 0.00 | 0.00 | 77 | 1014.4 |
| 20260506051154 | 61 | 192 | 9.6 | 17.4 | 0.00 | 0.00 | 0.00 | 72 | 1014.6 |
| 20260506050654 | 61 | 190 | 9.6 | 15.6 | 0.00 | 0.00 | 0.00 | 71 | 1014.5 |
| 20260506050154 | 61 | 190 | 8.7 | 16.5 | 0.00 | 0.00 | 0.00 | 71 | 1014.5 |
| 20260506044635 | 62 | 195 | 10.4 | 19.1 | 0.00 | 0.00 | 0.00 | 69 | 1014.8 |
| 20260506044136 | 62 | 192 | 9.6 | 19.1 | 0.00 | 0.00 | 0.00 | 68 | 1014.8 |
| 20260506043637 | 62 | 193 | 9.6 | 18.2 | 0.00 | 0.00 | 0.00 | 67 | 1014.7 |
| 20260506043135 | 62 | 197 | 9.6 | 16.5 | 0.00 | 0.00 | 0.00 | 67 | 1014.7 |
| 20260506042636 | 62 | 192 | 9.6 | 17.4 | 0.00 | 0.00 | 0.00 | 67 | 1014.7 |
| 20260506042137 | 62 | 185 | 7.8 | 17.4 | 0.00 | 0.00 | 0.00 | 66 | 1014.6 |
| 20260506041520 | 62 | 192 | 9.6 | 20.0 | 0.00 | 0.00 | 0.00 | 65 | 1014.7 |
| 20260506041020 | 62 | 199 | 10.4 | 17.4 | 0.00 | 0.00 | 0.00 | 64 | 1014.8 |
| 20260506040520 | 63 | 195 | 9.6 | 17.4 | 0.00 | 0.00 | 0.00 | 63 | 1014.9 |
| 20260506040020 | 63 | 197 | 9.6 | 16.5 | 0.00 | 0.00 | 0.00 | 63 | 1015.0 |
| 20260506035521 | 63 | 190 | 7.8 | 16.5 | 0.00 | 0.00 | 0.00 | 62 | 1014.9 |
| 20260506035020 | 63 | 188 | 7.8 | 16.5 | 0.00 | 0.00 | 0.00 | 61 | 1014.9 |
| 20260506034521 | 63 | 198 | 7.8 | 14.8 | 0.00 | 0.00 | 0.00 | 61 | 1014.9 |
| 20260506034020 | 63 | 198 | 8.7 | 16.5 | 0.00 | 0.00 | 0.00 | 61 | 1014.9 |
| 20260506033522 | 63 | 194 | 7.8 | 16.5 | 0.00 | 0.00 | 0.00 | 60 | 1014.8 |
| 20260506033020 | 63 | 195 | 7.0 | 13.9 | 0.00 | 0.00 | 0.00 | 60 | 1015.0 |
| 20260506032520 | 64 | 198 | 6.1 | 13.0 | 0.00 | 0.00 | 0.00 | 59 | 1015.0 |
| 20260506032020 | 64 | 192 | 5.2 | 13.0 | 0.00 | 0.00 | 0.00 | 59 | 1015.0 |
| 20260506031522 | 64 | 198 | 6.1 | 11.3 | 0.00 | 0.00 | 0.00 | 58 | 1015.1 |
| 20260506031020 | 64 | 189 | 5.2 | 11.3 | 0.00 | 0.00 | 0.00 | 58 | 1015.1 |
| 20260506030521 | 64 | 195 | 6.1 | 10.4 | 0.00 | 0.00 | 0.00 | 58 | 1015.1 |
| 20260506030020 | 64 | 199 | 7.0 | 13.0 | 0.00 | 0.00 | 0.00 | 57 | 1015.2 |
| 20260506025521 | 64 | 196 | 7.0 | 13.0 | 0.00 | 0.00 | 0.00 | 57 | 1015.4 |
| 20260506025020 | 64 | 199 | 6.1 | 13.9 | 0.00 | 0.00 | 0.00 | 57 | 1015.3 |
| 20260506024520 | 64 | 197 | 7.0 | 13.9 | 0.00 | 0.00 | 0.00 | 57 | 1015.3 |
| 20260506024020 | 65 | 197 | 6.1 | 14.8 | 0.00 | 0.00 | 0.00 | 57 | 1015.3 |
| 20260506023520 | 65 | 199 | 5.2 | 14.8 | 0.00 | 0.00 | 0.00 | 56 | 1015.4 |
| 20260506023020 | 65 | 196 | 5.2 | 15.6 | 0.00 | 0.00 | 0.00 | 56 | 1015.2 |
| 20260506022520 | 65 | 200 | 6.1 | 15.6 | 0.00 | 0.00 | 0.00 | 55 | 1015.4 |
| 20260506022020 | 66 | 198 | 5.2 | 13.0 | 0.00 | 0.00 | 0.00 | 55 | 1015.5 |
| 20260506021520 | 66 | 198 | 5.2 | 12.2 | 0.00 | 0.00 | 0.00 | 55 | 1015.4 |
| 20260506021020 | 66 | 192 | 5.2 | 12.2 | 0.00 | 0.00 | 0.00 | 55 | 1015.5 |
| 20260506020520 | 66 | 200 | 4.3 | 12.2 | 0.00 | 0.00 | 0.00 | 55 | 1015.5 |
| 20260506020020 | 66 | 194 | 5.2 | 15.6 | 0.00 | 0.00 | 0.00 | 54 | 1015.5 |
| 20260506015520 | 66 | 194 | 5.2 | 15.6 | 0.00 | 0.00 | 0.00 | 54 | 1015.4 |
| 20260506015020 | 66 | 195 | 5.2 | 14.8 | 0.00 | 0.00 | 0.00 | 53 | 1015.4 |
| 20260506014521 | 66 | 195 | 5.2 | 13.0 | 0.00 | 0.00 | 0.00 | 54 | 1015.5 |
| 20260506014020 | 66 | 198 | 6.1 | 9.6 | 0.00 | 0.00 | 0.00 | 54 | 1015.5 |
| 20260506013521 | 66 | 200 | 3.5 | 11.3 | 0.00 | 0.00 | 0.00 | 54 | 1015.5 |
| 20260506013020 | 66 | 196 | 3.5 | 11.3 | 0.00 | 0.00 | 0.00 | 54 | 1015.5 |
| 20260506012521 | 66 | 197 | 3.5 | 12.2 | 0.00 | 0.00 | 0.00 | 53 | 1015.6 |
| 20260506012020 | 67 | 204 | 4.3 | 12.2 | 0.00 | 0.00 | 0.00 | 53 | 1015.5 |
| 20260506011521 | 67 | 198 | 3.5 | 10.4 | 0.00 | 0.00 | 0.00 | 53 | 1015.5 |
| 20260506011020 | 66 | 200 | 3.5 | 13.0 | 0.00 | 0.00 | 0.00 | 53 | 1015.5 |
| 20260506010521 | 66 | 194 | 4.3 | 13.0 | 0.00 | 0.00 | 0.00 | 53 | 1015.4 |
| 20260506010020 | 66 | 197 | 4.3 | 12.2 | 0.00 | 0.00 | 0.00 | 53 | 1015.3 |
| 20260506005521 | 66 | 199 | 5.2 | 12.2 | 0.00 | 0.00 | 0.00 | 53 | 1015.2 |
| 20260506005020 | 66 | 206 | 3.5 | 13.0 | 0.00 | 0.00 | 0.00 | 53 | 1015.2 |
| 20260506004521 | 67 | 195 | 4.3 | 13.0 | 0.00 | 0.00 | 0.00 | 53 | 1015.1 |
| 20260506004020 | 67 | 195 | 4.3 | 12.2 | 0.00 | 0.00 | 0.00 | 52 | 1015.2 |
| 20260506003521 | 67 | 196 | 4.3 | 10.4 | 0.00 | 0.00 | 0.00 | 52 | 1015.1 |
| 20260506003020 | 67 | 203 | 3.5 | 10.4 | 0.00 | 0.00 | 0.00 | 52 | 1015.2 |
| 20260506002522 | 67 | 198 | 4.3 | 10.4 | 0.00 | 0.00 | 0.00 | 52 | 1015.2 |
| 20260506002020 | 67 | 197 | 3.5 | 10.4 | 0.00 | 0.00 | 0.00 | 51 | 1015.1 |
| 20260506001521 | 67 | 194 | 3.5 | 13.9 | 0.00 | 0.00 | 0.00 | 51 | 1015.1 |
| 20260506001020 | 67 | 199 | 4.3 | 13.9 | 0.00 | 0.00 | 0.00 | 50 | 1015.1 |
| 20260506000521 | 67 | 196 | 6.1 | 15.6 | 0.00 | 0.00 | 0.00 | 50 | 1015.0 |
| 20260506000020 | 68 | 200 | 3.5 | 15.6 | 0.00 | 0.00 | 0.00 | 50 | 1015.0 |
| 20260505235521 | 68 | 195 | 4.3 | 11.3 | 0.00 | 0.00 | 0.00 | 50 | 1014.9 |
| 20260505235024 | 68 | 205 | 5.2 | 11.3 | 0.00 | 0.00 | 0.00 | 50 | 1015.0 |
| 20260505234524 | 68 | 198 | 5.2 | 10.4 | 0.00 | 0.00 | 0.00 | 49 | 1014.9 |
| 20260505234021 | 68 | 202 | 3.5 | 11.3 | 0.00 | 0.00 | 0.00 | 49 | 1014.9 |
| 20260505233524 | 68 | 200 | 4.3 | 12.2 | 0.00 | 0.00 | 0.00 | 48 | 1015.0 |
| 20260505233022 | 68 | 198 | 5.2 | 12.2 | 0.00 | 0.00 | 0.00 | 48 | 1014.7 |
| 20260505232521 | 68 | 196 | 6.1 | 13.0 | 0.00 | 0.00 | 0.00 | 48 | 1014.6 |
| 20260505232020 | 68 | 192 | 4.3 | 13.0 | 0.00 | 0.00 | 0.00 | 49 | 1014.7 |
| 20260505231524 | 68 | 196 | 5.2 | 12.2 | 0.00 | 0.00 | 0.00 | 49 | 1014.8 |
| 20260505231022 | 68 | 197 | 4.3 | 12.2 | 0.00 | 0.00 | 0.00 | 49 | 1014.9 |
| 20260505230527 | 69 | 197 | 3.5 | 10.4 | 0.00 | 0.00 | 0.00 | 49 | 1014.8 |
| 20260505230023 | 69 | 194 | 4.3 | 14.8 | 0.00 | 0.00 | 0.00 | 48 | 1014.9 |
| 20260505225522 | 69 | 196 | 4.3 | 14.8 | 0.00 | 0.00 | 0.00 | 48 | 1014.7 |
| 20260505225020 | 69 | 196 | 4.3 | 13.0 | 0.00 | 0.00 | 0.00 | 48 | 1014.7 |
| 20260505224522 | 69 | 198 | 6.1 | 15.6 | 0.00 | 0.00 | 0.00 | 47 | 1014.6 |
| 20260505224020 | 69 | 191 | 5.2 | 15.6 | 0.00 | 0.00 | 0.00 | 47 | 1014.6 |
| 20260505223437 | 69 | 194 | 5.2 | 13.9 | 0.00 | 0.00 | 0.00 | 47 | 1014.8 |
| 20260505222940 | 69 | 197 | 4.3 | 14.8 | 0.00 | 0.00 | 0.00 | 47 | 1014.9 |
| 20260505222437 | 69 | 192 | 5.2 | 14.8 | 0.00 | 0.00 | 0.00 | 47 | 1014.7 |
| 20260505221939 | 70 | 197 | 5.2 | 14.8 | 0.00 | 0.00 | 0.00 | 46 | 1014.8 |
| 20260505221438 | 70 | 203 | 6.1 | 14.8 | 0.00 | 0.00 | 0.00 | 46 | 1014.9 |
| 20260505220938 | 70 | 199 | 4.3 | 12.2 | 0.00 | 0.00 | 0.00 | 46 | 1014.9 |
| 20260505220437 | 70 | 196 | 6.1 | 12.2 | 0.00 | 0.00 | 0.00 | 45 | 1015.0 |
| 20260505215941 | 70 | 195 | 5.2 | 12.2 | 0.00 | 0.00 | 0.00 | 46 | 1014.9 |
| 20260505215437 | 70 | 189 | 4.3 | 13.0 | 0.00 | 0.00 | 0.00 | 46 | 1015.0 |
| 20260505214940 | 70 | 200 | 5.2 | 13.0 | 0.00 | 0.00 | 0.00 | 46 | 1015.0 |
| 20260505214439 | 70 | 199 | 5.2 | 13.0 | 0.00 | 0.00 | 0.00 | 45 | 1015.0 |
| 20260505213938 | 70 | 192 | 4.3 | 12.2 | 0.00 | 0.00 | 0.00 | 45 | 1015.2 |
| 20260505213437 | 70 | 190 | 3.5 | 13.9 | 0.00 | 0.00 | 0.00 | 45 | 1015.2 |
| 20260505212938 | 70 | 196 | 6.1 | 14.8 | 0.00 | 0.00 | 0.00 | 44 | 1015.0 |
| 20260505212437 | 71 | 196 | 5.2 | 14.8 | 0.00 | 0.00 | 0.00 | 44 | 1015.1 |
| 20260505211938 | 71 | 197 | 7.0 | 13.9 | 0.00 | 0.00 | 0.00 | 43 | 1015.0 |
| 20260505211437 | 71 | 195 | 5.2 | 15.6 | 0.00 | 0.00 | 0.00 | 44 | 1015.2 |
| 20260505210939 | 71 | 201 | 6.1 | 15.6 | 0.00 | 0.00 | 0.00 | 43 | 1015.2 |
| 20260505210437 | 71 | 199 | 7.0 | 17.4 | 0.00 | 0.00 | 0.00 | 42 | 1015.2 |
| 20260505205937 | 70 | 193 | 7.0 | 17.4 | 0.00 | 0.00 | 0.00 | 42 | 1015.2 |
| 20260505205437 | 70 | 192 | 6.1 | 14.8 | 0.00 | 0.00 | 0.00 | 42 | 1015.4 |
| 20260505204938 | 71 | 199 | 5.2 | 16.5 | 0.00 | 0.00 | 0.00 | 40 | 1015.4 |
| 20260505204437 | 71 | 195 | 7.0 | 16.5 | 0.00 | 0.00 | 0.00 | 38 | 1015.3 |
| 20260505203938 | 71 | 194 | 5.2 | 15.6 | 0.00 | 0.00 | 0.00 | 40 | 1015.3 |
| 20260505203437 | 71 | 202 | 7.0 | 15.6 | 0.00 | 0.00 | 0.00 | 41 | 1015.3 |
| 20260505202938 | 72 | 192 | 6.1 | 15.6 | 0.00 | 0.00 | 0.00 | 42 | 1015.1 |
| 20260505202437 | 72 | 186 | 6.1 | 16.5 | 0.00 | 0.00 | 0.00 | 42 | 1015.2 |
| 20260505201937 | 72 | 183 | 6.1 | 16.5 | 0.00 | 0.00 | 0.00 | 41 | 1015.0 |
| 20260505201439 | 71 | 191 | 8.7 | 16.5 | 0.00 | 0.00 | 0.00 | 41 | 1015.1 |
| 20260505200939 | 71 | 195 | 7.0 | 14.8 | 0.00 | 0.00 | 0.00 | 40 | 1015.4 |
| 20260505200414 | 71 | 186 | 7.0 | 15.6 | 0.00 | 0.00 | 0.00 | 42 | 1015.4 |
| 20260505195914 | 72 | 197 | 8.7 | 15.6 | 0.00 | 0.00 | 0.00 | 39 | 1015.2 |
| 20260505195415 | 72 | 186 | 5.2 | 16.5 | 0.00 | 0.00 | 0.00 | 41 | 1015.3 |
| 20260505194914 | 72 | 194 | 8.7 | 16.5 | 0.00 | 0.00 | 0.00 | 39 | 1015.4 |
| 20260505194414 | 73 | 184 | 7.0 | 15.6 | 0.00 | 0.00 | 0.00 | 42 | 1015.5 |
| 20260505193914 | 72 | 199 | 6.1 | 15.6 | 0.00 | 0.00 | 0.00 | 43 | 1015.8 |
| 20260505193336 | 73 | 172 | 3.5 | 13.0 | 0.00 | 0.00 | 0.00 | 43 | 1015.8 |
| 20260505192803 | 72 | 182 | 5.2 | 16.5 | 0.00 | 0.00 | 0.00 | 41 | 1015.9 |
| 20260505192305 | 72 | 178 | 4.3 | 16.5 | 0.00 | 0.00 | 0.00 | 41 | 1015.9 |
| 20260505191803 | 72 | 187 | 6.1 | 18.2 | 0.00 | 0.00 | 0.00 | 42 | 1016.1 |
| 20260505191304 | 72 | 196 | 7.0 | 18.2 | 0.00 | 0.00 | 0.00 | 41 | 1016.0 |
| 20260505190804 | 72 | 187 | 6.1 | 12.2 | 0.00 | 0.00 | 0.00 | 42 | 1016.1 |
| 20260505190303 | 71 | 184 | 7.0 | 18.2 | 0.00 | 0.00 | 0.00 | 43 | 1016.1 |
| 20260505185803 | 72 | 197 | 7.8 | 18.2 | 0.00 | 0.00 | 0.00 | 42 | 1016.0 |
| 20260505185305 | 72 | 195 | 7.8 | 16.5 | 0.00 | 0.00 | 0.00 | 41 | 1016.0 |
| 20260505184804 | 73 | 200 | 8.7 | 15.6 | 0.00 | 0.00 | 0.00 | 42 | 1016.3 |
| 20260505184303 | 72 | 191 | 7.0 | 15.6 | 0.00 | 0.00 | 0.00 | 43 | 1016.4 |
| 20260505183715 | 72 | 191 | 7.8 | 20.0 | 0.00 | 0.00 | 0.00 | 44 | 1016.5 |
| 20260505183217 | 72 | 188 | 6.1 | 18.2 | 0.00 | 0.00 | 0.00 | 43 | 1016.7 |
| 20260505182716 | 71 | 189 | 6.1 | 13.0 | 0.00 | 0.00 | 0.00 | 44 | 1016.6 |
| 20260505182216 | 71 | 188 | 6.1 | 13.0 | 0.00 | 0.00 | 0.00 | 44 | 1016.7 |
| 20260505181714 | 71 | 195 | 7.0 | 13.9 | 0.00 | 0.00 | 0.00 | 45 | 1017.0 |
| 20260505181215 | 71 | 195 | 7.0 | 13.9 | 0.00 | 0.00 | 0.00 | 43 | 1016.9 |
| 20260505180714 | 72 | 200 | 6.1 | 13.9 | 0.00 | 0.00 | 0.00 | 43 | 1016.8 |
| 20260505180215 | 72 | 188 | 5.2 | 13.9 | 0.00 | 0.00 | 0.00 | 45 | 1016.9 |
| 20260505175714 | 71 | 188 | 3.5 | 13.9 | 0.00 | 0.00 | 0.00 | 49 | 1016.9 |
| 20260505175214 | 71 | 198 | 5.2 | 12.2 | 0.00 | 0.00 | 0.00 | 48 | 1016.9 |
| 20260505174715 | 71 | 192 | 6.1 | 13.0 | 0.00 | 0.00 | 0.00 | 46 | 1016.9 |
| 20260505174214 | 71 | 190 | 5.2 | 13.0 | 0.00 | 0.00 | 0.00 | 47 | 1017.0 |
| 20260505173714 | 71 | 183 | 4.3 | 13.0 | 0.00 | 0.00 | 0.00 | 47 | 1017.0 |
| 20260505173214 | 70 | 198 | 4.3 | 13.0 | 0.00 | 0.00 | 0.00 | 48 | 1017.0 |
| 20260505172714 | 71 | 193 | 5.2 | 9.6 | 0.00 | 0.00 | 0.00 | 47 | 1017.0 |
| 20260505172215 | 71 | 187 | 3.5 | 9.6 | 0.00 | 0.00 | 0.00 | 49 | 1017.2 |
| 20260505171714 | 70 | 198 | 3.5 | 9.6 | 0.00 | 0.00 | 0.00 | 48 | 1017.3 |
| 20260505171147 | 71 | 188 | 3.5 | 10.4 | 0.00 | 0.00 | 0.00 | 49 | 1017.3 |
| 20260505170625 | 70 | 192 | 4.3 | 8.7 | 0.00 | 0.00 | 0.00 | 49 | 1017.4 |
| 20260505170110 | 70 | 187 | 3.5 | 9.6 | 0.00 | 0.00 | 0.00 | 49 | 1017.5 |
| 20260505165610 | 71 | 194 | 6.1 | 11.3 | 0.00 | 0.00 | 0.00 | 47 | 1017.5 |
| 20260505165110 | 70 | 193 | 2.6 | 11.3 | 0.00 | 0.00 | 0.00 | 48 | 1017.5 |
| 20260505164610 | 70 | 188 | 4.3 | 8.7 | 0.00 | 0.00 | 0.00 | 49 | 1017.6 |
| 20260505164110 | 70 | 178 | 1.7 | 8.7 | 0.00 | 0.00 | 0.00 | 50 | 1017.7 |